TimeAKDT,TemperatureF,Dew PointF,Humidity,Sea Level PressureIn,VisibilityMPH,Wind Direction,Wind SpeedMPH,Gust SpeedMPH,PrecipitationIn,Events,Conditions,WindDirDegrees,DateUTC
12:53 AM,39.0,24.1,55,28.97,10.0,NE,5.8,-,N/A,,Clear,40,2013-09-21 08:53:00
1:53 AM,41.0,24.1,51,28.95,10.0,NE,3.5,-,N/A,,Mostly Cloudy,40,2013-09-21 09:53:00
2:53 AM,41.0,26.1,55,28.93,10.0,NE,5.8,-,N/A,,Overcast,40,2013-09-21 10:53:00
3:53 AM,42.1,26.1,53,28.92,10.0,NNE,4.6,-,N/A,,Overcast,30,2013-09-21 11:53:00
4:53 AM,43.0,26.1,51,28.91,10.0,NNE,4.6,-,N/A,,Overcast,20,2013-09-21 12:53:00
5:53 AM,43.0,30.9,62,28.91,10.0,NE,3.5,-,N/A,,Overcast,40,2013-09-21 13:53:00
6:53 AM,46.9,30.9,54,28.92,10.0,NE,8.1,-,N/A,,Overcast,50,2013-09-21 14:53:00
7:53 AM,46.0,32.0,58,28.92,10.0,North,6.9,-,0.00,,Overcast,10,2013-09-21 15:53:00
8:53 AM,45.0,33.1,63,28.93,10.0,NE,5.8,-,N/A,,Overcast,50,2013-09-21 16:53:00
9:53 AM,45.0,34.0,65,28.95,10.0,ENE,8.1,-,N/A,,Overcast,70,2013-09-21 17:53:00
10:53 AM,46.9,33.1,59,28.96,10.0,East,9.2,-,N/A,,Overcast,80,2013-09-21 18:53:00
11:53 AM,45.0,35.1,68,28.97,10.0,NNE,4.6,-,0.00,Rain,Light Rain,20,2013-09-21 19:53:00
12:14 PM,44.6,35.6,71,28.97,10.0,NNE,5.8,-,0.00,Rain,Light Rain,30,2013-09-21 20:14:00
12:53 PM,45.0,37.0,74,28.98,10.0,Calm,Calm,-,0.02,Rain,Light Rain,0,2013-09-21 20:53:00
1:06 PM,44.6,37.4,76,28.98,7.0,Calm,Calm,-,0.01,Rain,Rain,0,2013-09-21 21:06:00
1:53 PM,46.9,37.9,71,28.98,10.0,Calm,Calm,-,0.02,Rain,Light Rain,0,2013-09-21 21:53:00
2:53 PM,45.0,36.0,71,28.98,10.0,North,6.9,-,0.04,Rain,Light Rain,10,2013-09-21 22:53:00
3:53 PM,45.0,37.0,74,28.98,10.0,East,3.5,-,0.01,Rain,Light Rain,80,2013-09-21 23:53:00
4:53 PM,45.0,37.9,76,28.98,10.0,Calm,Calm,-,0.01,Rain,Light Rain,0,2013-09-22 00:53:00
5:53 PM,45.0,37.9,76,28.98,10.0,ENE,3.5,-,0.00,Rain,Light Rain,60,2013-09-22 01:53:00
6:53 PM,45.0,37.0,74,28.98,10.0,North,5.8,-,0.00,,Overcast,350,2013-09-22 02:53:00
7:53 PM,44.1,36.0,73,28.98,10.0,Calm,Calm,-,0.00,Rain,Light Rain,0,2013-09-22 03:53:00
8:53 PM,44.1,36.0,73,28.99,10.0,Calm,Calm,-,0.00,Rain,Light Rain,0,2013-09-22 04:53:00
9:53 PM,44.1,36.0,73,28.99,10.0,Calm,Calm,-,0.01,Rain,Light Rain,0,2013-09-22 05:53:00
10:53 PM,44.1,37.0,76,28.98,10.0,North,5.8,-,0.01,Rain,Light Rain,360,2013-09-22 06:53:00
11:53 PM,45.0,37.0,74,28.97,10.0,North,5.8,-,0.00,,Overcast,360,2013-09-22 07:53:00